Regional Weather Roundup
Issued by NWS

Home | Current Version | Previous Version | Graphics & Text | Print | Product List | Glossary On
Versions: 1 2 3 4 5 6 7 8 9 10 11 12 13 14 15 16 17 18 19 20 21 22 23 24 25 26 27 28 29 30 31 32 33 34 35 36 37 38 39 40 41 42 43 44 45 46 47 48 49 50
000
ASUS45 KCYS 031510
RWRWY

WYOMING REGIONAL WEATHER ROUNDUP
NATIONAL WEATHER SERVICE CHEYENNE WY
800 AM MST TUE MAR 03 2015

NOTE:  "FAIR" INDICATES FEW OR NO CLOUDS BELOW 12,000 FEET
WITH NO SIGNIFICANT WEATHER AND/OR OBSTRUCTIONS TO VISIBILITY.

WYZ001-031600-
YELLOWSTONE NATIONAL PARK

CITY           SKY/WX    TMP DP  RH WIND       PRES   REMARKS
LK YELLOWSTONE   N/A      3  -5  69 VRB6      29.76R WCI  -8
W YELLOWSTONE  NOT AVBL

$$
WYZ002>013-054>058-071-098>099-031600-
NORTHERN WYOMING

CITY           SKY/WX    TMP DP  RH WIND       PRES   REMARKS
JACKSON        SNOW      14  12  92 N23G32    29.72R VSB 1/2 WCI  -5
CODY           CLOUDY     7   3  85 N10       29.99R VSB 1   WCI  -8
GREYBULL       SNOW      12   9  87 NW21      29.99R VSB 1/2 WCI  -7
WORLAND        LGT SNOW  14   8  77 NW15G24   29.99R WCI  -1
SHERIDAN       SNOW      10   6  84 NW14      30.07R VSB 1/2 WCI  -6
BUFFALO        LGT SNOW  10   5  80 N20G26    29.95R WCI  -9
GILLETTE       LGT SNOW   9   3  77 N21       29.98S WCI -11
HULETT         CLOUDY     9   3  78 N6        29.99R HAZE    WCI  -1
NEWCASTLE      FAIR      12   1  62 N18G25    29.95R WCI  -5

$$
WYZ014>020-022>026-101>103-031600-
CENTRAL WYOMING

CITY           SKY/WX    TMP DP  RH WIND       PRES   REMARKS
BIG PINEY      PTSUNNY   15  11  83 SE14      29.70R WCI   0
PINEDALE       LGT SNOW  18  14  86 SE12      29.71R WCI   5
DUBOIS         LGT SNOW   9   5  85 SE10G20   29.73R VSB 3/4 WCI  -6
LANDER         LGT SNOW  11   7  84 NE5       29.88R FOG     WCI   3
RIVERTON       LGT SNOW  10   6  84 NE13      29.89S VSB 1   WCI  -5
CASPER         CLOUDY     7   2  80 NE13      29.94R HAZE    WCI  -9
DOUGLAS        CLOUDY     9   4  80 NW14      29.96R HAZE    WCI  -7

$$
WYZ021-027>030-104>119-031600-
SOUTHERN WYOMING

CITY           SKY/WX    TMP DP  RH WIND       PRES   REMARKS
EVANSTON       SNOW      25  23  92 SW13      29.68F VSB 1/2 WCI  14
KEMMERER       LGT SNOW  23  23 100 CALM      29.68S VSB 1
FORT BRIDGER   LGT SNOW  25  24  96 W6        29.72S WCI  18
ROCK SPRINGS   SNOW      14  12  92 NE10      29.74S VSB 1/2 WCI   1
DIXON          FAIR      15  12  88 NE3       29.80R
RAWLINS        CLOUDY    10   4  76 E3        29.78S
SARATOGA       LGT SNOW  10   9  92 W7        29.77R WCI   0
LARAMIE        CLOUDY    13   8  81 NE5       29.73R WCI   5
CHEYENNE       LGT SNOW  11   4  73 N29G38    29.80R WCI -11
TORRINGTON     LGT SNOW  15  10  80 N16G23    29.95R VSB 3/4 WCI  -1
PINE BLUFFS    LGT SNOW  18  14  86 N24G30    29.85R WCI   0

$$


USA.gov is the U.S. government's official web portal to all federal, state and local government web resources and services.